Tracking 29892 objects as of 21-Nov-2024
HD Live streaming from Space Station
objects crossing your sky now

STARLINK-3697

Track STARLINK-3697 now!
10-day predictions
STARLINK-3697 is classified as:


NORAD ID: 51962
Int'l Code: 2022-025G
Perigee: 553.5 km
Apogee: 555.2 km
Inclination: 53.1 °
Period: 95.6 minutes
Semi major axis: 6925 km
RCS: Unknown
Launch date: March 9, 2022
Source: United States (US)
Launch site: AIR FORCE EASTERN TEST RANGE (AFETR)
Your satellite tracking list
Your tracking list is empty




NASA's NSSDC Master Catalog

Two Line Element Set (TLE):
1 51962U 22025G   24325.12087105 -.00000153  00000-0  86224-5 0  9991
2 51962  53.0562 356.8450 0001241  86.8364 273.2767 15.06396091149457
Source of the keplerian elements: AFSPC